Вернуться в каталог

COSMOS 2251 DEB

АктивенLEO
NORAD 34990·DEBRIS·🇷🇺 Russia

Запущен Jun 16, 1993 с Plesetsk Cosmodrome

Loading…

Ближайшие Пролёты (ближайшие 24 часа)

TLE

СвежийSource: Space-Track

Эпоха: Sep 13, 2026, 06:07 UTC

1 34990U 93036AFN 26256.25488936  .00000631  00000-0  19621-3 0  9994
2 34990  74.0417 102.1534 0015364 102.5489 257.7387 14.42958014913059

Отслеживайте COSMOS 2251 DEB в реальном времени с AllMySat

Download on the App Store